Regional Weather Roundup
Issued by NWS

Home | Current Version | Previous Version | Graphics & Text | Print | Product List | Glossary On
Versions: 1 2 3 4 5 6 7 8 9 10 11 12 13 14 15 16 17 18 19 20 21 22 23 24 25 26 27 28 29 30 31 32 33 34 35 36 37 38 39 40 41 42 43 44 45 46 47 48 49 50
000
ASUS45 KTFX 210404
RWRMT
MONTANA HOURLY WEATHER ROUNDUP
NATIONAL WEATHER SERVICE GREAT FALLS MT
1004 PM MDT WED AUG 20 2014

NOTE: "FAIR" INDICATES FEW OR NO CLOUDS BELOW 12000 FEET WITH NO
SIGNIFICANT WEATHER AND/OR OBSTRUCTIONS TO VISIBILITY.

* THESE STATIONS ARE NOT UNDER NWS QUALITY CONTROL. THEY DO NOT
   REPORT WEATHER SUCH AS PRECIPITATION OR FOG.

MTZ001>007-043-210500-
WEST OF THE DIVIDE
CITY           SKY/WX    TMP DP  RH WIND       PRES   REMARKS
KALISPELL      FAIR      57  54  90 N10       29.90R
MISSOULA       MOCLDY    64  54  70 SE5       29.90R
BUTTE          CLOUDY    55  48  77 W6        30.03S
MULLAN PASS    PTCLDY    52  45  77 CALM      30.02R
* ESSEX        N/A       53  50  90 N/A        N/A
* LINCOLN      N/A       63  47  56 NW2G8      N/A
* LOOKOUT PASS N/A       54  49  83 N2         N/A
* POLSON       N/A       58  54  87 NE1        N/A
* RONAN APT    PTCLDY    63  57  81 SE6        N/A
* SEELEY LAKE  N/A       61  51  70 SW1        N/A
* THOMP F APT  PTCLDY    52  46  80 W4G13      N/A
* YAAK HILL    N/A       61  58  90 NW4        N/A
$$

MTZ008-052>055-210500-
SOUTHWEST MONTANA
CITY           SKY/WX    TMP DP  RH WIND       PRES   REMARKS
BOZEMAN        CLOUDY    63  50  63 W8        29.97R
DILLON         CLOUDY    55  50  83 S3        30.01R
W YELLOWSTONE  CLOUDY    48  48 100 CALM      30.11F
* THREE FORKS  CLOUDY    63  54  73 N/A        N/A
* BOULDER HILL N/A       54  44  69 S9         N/A
* MONIDA PASS  N/A       51  46  83 S19        N/A
* RAYNOLDS PAS N/A       50  37  61 S4G9       N/A
* WHITEHALL    N/A       58  54  87 W4         N/A
* WISE RIVER   N/A       55  45  69 SE3G8      N/A
$$

MTZ009>010-012-014-046-048-049-054-210500-
EAST SLOPES AND CENTRAL MONTANA
CITY           SKY/WX    TMP DP  RH WIND       PRES   REMARKS
CUT BANK       PTCLDY    54  52  93 N14       29.98S
GREAT FALLS    CLOUDY    57  52  83 NE15      29.95R
HELENA         CLOUDY    66  46  49 S5        29.91R
MALMSTROM AFB  CLOUDY    57  55  93 N10       29.97R
* CONRAD       PTCLDY    55  52  90 N/A        N/A
* DEARBORN     N/A       63  54  73 N14G22     N/A
* EAST GLACIER N/A       50  48  93 NE5        N/A
* MONARCH      N/A       55  47  75 NW13G20    N/A
* PENDROY      N/A       52  51  96 VRB12G17    N/A
* ROGERS PASS  N/A       56  48  75 S4G10      N/A
* SAINT MARY   N/A       52  49  90 NE4G11     N/A
* SWEET GRASS  N/A       54  54 100 NW13       N/A
$$

MTZ011-013-016-021-035-040-045-047-050-051-210500-
NORTH CENTRAL MONTANA
CITY           SKY/WX    TMP DP  RH WIND       PRES   REMARKS
HAVRE          CLOUDY    63  55  75 SW6       29.92R
LEWISTOWN      CLOUDY    61  54  78 CALM      29.93R
* CHESTER      N/A       59  54  84 N7G13      N/A
* DENTON       N/A       62  53  73 S9         N/A
* GEYSER       N/A       58  49  72 W2         N/A
* JUDITH GAP   N/A       57  55  93 SE8        N/A
* LOMA         N/A       60  58  93 N8         N/A
$$

MTZ017>020-022>027-061-062-210500-
NORTHEAST MONTANA
CITY           SKY/WX    TMP DP  RH WIND       PRES   REMARKS
GLASGOW        PTCLDY    66  54  65 N7        29.80R
GLENDIVE       CLEAR     63  57  81 W7        29.83R
JORDAN         PTCLDY    64  55  73 NW6       29.83R
SIDNEY         PTCLDY    66  61  84 W6        29.79S
WOLF POINT     CLEAR     66  54  65 CALM      29.79R
* BEAVER HILL  N/A       64  59  84 S8         N/A
* CIRCLE       N/A       64  55  73 N/A        N/A
* LINDSAY DVD  N/A       62  53  73 W7         N/A
* SACO         N/A       67  57  70 W8         N/A
$$

MTZ028>042-056>058-210500-
SOUTHCENTRAL AND SOUTHEAST MONTANA
CITY           SKY/WX    TMP DP  RH WIND       PRES   REMARKS
BAKER          CLEAR     63  57  81 W5        29.84S
BILLINGS       LGT RAIN  61  55  81 W18       29.92R
LIVINGSTON     CLOUDY    63  48  58 W14       29.96R
MILES CITY     CLEAR     64  52  65 W7        29.82R
* LAUREL APT   CLOUDY    61  54  78 W6         N/A
* ROUNDUP APT  CLOUDY    61  54  78 W7         N/A
* ALZADA       N/A       66  50  56 N/A        N/A
* HYSHAM       N/A       70  44  39 E9G14      N/A
* LAME DEER    N/A       66  45  47 E7         N/A
* REED POINT   N/A       59  57  93 N/A        N/A
* ROSCOE HILL  N/A       58  48  70 W4         N/A
$$

REGIONAL REPORTS...DAKOTAS
CITY           SKY/WX    TMP DP  RH WIND       PRES   REMARKS
WILLISTON      PTCLDY    64  61  90 NE3       29.78R
DICKINSON      CLEAR     61  57  87 W6        29.78S
BEACH          N/A       61  59  93 CALM      29.82S
CROSBY         FOG       64  64 100 CALM      29.78S
TIOGA          CLOUDY    63  63 100 SW6       29.82S
WATFORD CITY   CLEAR     61  59  93 CALM      29.77S
BISMARCK       MOCLDY    72  70  93 E10       29.71R
GRAND FORKS    MOCLDY    73  66  79 SE9       29.78R
FARGO          MOCLDY    73  66  79 SE13      29.77F
BUFFALO SD     CLEAR     64  57  78 N6        29.76S
RAPID CITY     CLEAR     68  57  68 N13       29.82R
$$

REGIONAL REPORTS...WYOMING/IDAHO/WASHINGTON
CITY           SKY/WX    TMP DP  RH WIND       PRES   REMARKS
GILLETTE       PTCLDY    61  46  58 CALM      29.91R
SHERIDAN       PTCLDY    59  48  67 S6        29.89R
CODY           CLOUDY    63  46  54 SW7       30.01S
YELLOWSTONE LA CLOUDY    46  45  96 CALM      30.19F
SALMON         TSTM      59  54  84 CALM      29.97R
MULLAN PASS    PTCLDY    52  45  77 CALM      30.02S
SAND POINT     HVY RAIN  59  59 100 W3        29.91R
SPOKANE        MOCLDY    64  57  78 E5        29.87R

$$



USA.gov is the U.S. government's official web portal to all federal, state and local government web resources and services.